Weather History for LKPR - December, 2012

Change the Weather History Date:

Thursday, December 6, 2012

  Actual Average Record
Temperature  
Mean Temperature 26 °F -  
Max Temperature 32 °F 35 °F 51 °F (2006)
Min Temperature 21 °F 25 °F 21 °F (2012)
Degree Days  
Heating Degree Days 38    
Moisture  
Dew Point 24 °F    
Average Humidity 82    
Maximum Humidity 100    
Minimum Humidity 52    
Precipitation  
Precipitation 0.00 in 0.03 in - ()
Sea Level Pressure  
Sea Level Pressure 29.74 in    
Wind  
Wind Speed 11 mph ()    
Max Wind Speed 23 mph    
Max Gust Speed 32 mph    
Visibility 5.4 miles    
Events Snow    
Averages and records for this station are not official NWS values.
T = Trace of Precipitation, MM = Missing Value Source: Averaged Metar Reports

Daily Weather History Graph

Daily Weather History Graph

Search for Another Location

Airport or City:

Trip Planner

Search our weather history database for the weather conditions in past years. The results will help you decide how hot, cold, wet, or windy it might be!

Date:

Astronomy

Dec. 06, 2012 Rise Set
Actual Time 7:46 AM CET 4:01 PM CET
Civil Twilight 7:08 AM CET 4:39 PM CET
Nautical Twilight 6:27 AM CET 5:20 PM CET
Astronomical Twilight 5:48 AM CET 5:59 PM CET
Moon No Moon Rise 11:58 AM CET (12/6)
Length of Visible Light 9h 30m
Length of Day
8h 14m
Waning Gibbous, 52% of the Moon is Illuminated
Dec 6
Waning Gibbous
Dec 6
Last Quarter
Dec 13
New
Dec 20
First Quarter
Dec 28
Full

Hourly Weather History & Observations

Time (CET) Temp. Windchill Dew Point Humidity Pressure Visibility Wind Dir Wind Speed Gust Speed Precip Events Conditions
12:00 AM 30.2 °F 23.4 °F 28.4 °F 93% 29.62 in 6.2 mi South 6.9 mph - N/A   Mostly Cloudy
12:30 AM 28.4 °F 21.2 °F 26.6 °F 93% 29.62 in 6.2 mi South 6.9 mph - N/A   Partly Cloudy
1:00 AM 28 °F - 26 °F 91% 29.71 in 7 mi South 6.7 mph - -   Partly Cloudy
1:00 AM 26.6 °F 19.1 °F 26.6 °F 100% 29.62 in - South 6.9 mph - N/A   Clear
1:30 AM 28.4 °F 21.2 °F 26.6 °F 93% 29.62 in - South 6.9 mph - N/A   Clear
2:00 AM 28.4 °F 21.2 °F 26.6 °F 93% 29.62 in - South 6.9 mph - N/A   Clear
2:30 AM 28.4 °F 20.4 °F 28.4 °F 100% 29.62 in 5.6 mi South 8.1 mph - N/A Snow Light Snow Showers
3:00 AM 30.2 °F 21.9 °F 28.4 °F 93% 29.62 in 6.2 mi South 9.2 mph - N/A   Mostly Cloudy
3:30 AM 30.2 °F 20.8 °F 28.4 °F 93% 29.62 in 6.2 mi South 11.5 mph - N/A   Overcast
4:00 AM 32.0 °F 23.6 °F 28.4 °F 87% 29.62 in 6.2 mi South 10.4 mph - N/A   Partly Cloudy
4:30 AM 30.2 °F 21.3 °F 28.4 °F 93% 29.62 in - South 10.4 mph - N/A   Clear
5:00 AM 30.2 °F 21.9 °F 28.4 °F 93% 29.62 in 6.2 mi South 9.2 mph - N/A   Partly Cloudy
5:30 AM 32.0 °F 23.6 °F 28.4 °F 87% 29.62 in 6.2 mi South 10.4 mph - N/A   Partly Cloudy
6:00 AM 30.2 °F 21.3 °F 28.4 °F 93% 29.62 in - South 10.4 mph - N/A   Clear
6:30 AM 30.2 °F 21.3 °F 28.4 °F 93% 29.62 in 6.2 mi South 10.4 mph - N/A   Partly Cloudy
7:00 AM 31 °F - 28 °F 86% 29.70 in 9 mi SSW 11.2 mph - -   Partly Cloudy
7:00 AM 30.2 °F 21.9 °F 28.4 °F 93% 29.62 in 6.2 mi South 9.2 mph - N/A   Mostly Cloudy
7:18 AM 32.0 °F 24.2 °F 28.4 °F 87% 29.62 in 3.7 mi SSW 9.2 mph - N/A Snow Light Snow Showers
7:30 AM 32.0 °F 24.2 °F 28.4 °F 87% 29.62 in 2.2 mi SSW 9.2 mph - N/A Snow Light Snow Showers
7:34 AM 32.0 °F 23.6 °F 28.4 °F 87% 29.62 in 1.6 mi SSW 10.4 mph - N/A Snow Snow Showers
7:53 AM 32.0 °F 22.5 °F 28.4 °F 87% 29.62 in 2.2 mi SSW 12.7 mph - N/A Snow Light Snow Showers
8:00 AM 30.2 °F 20.8 °F 30.2 °F 100% 29.62 in 5.6 mi SSW 11.5 mph - N/A Snow Light Snow Showers
8:12 AM 30.2 °F 20.2 °F 28.4 °F 93% 29.62 in 6.2 mi SSW 12.7 mph - N/A   Partly Cloudy
8:30 AM 30.2 °F 20.8 °F 28.4 °F 93% 29.62 in 6.2 mi SSW 11.5 mph - N/A   Partly Cloudy
9:00 AM 32.0 °F 23.6 °F 28.4 °F 87% 29.65 in 6.2 mi SW 10.4 mph - N/A   Partly Cloudy
9:24 AM 32.0 °F 21.6 °F 28.4 °F 87% 29.65 in 6.2 mi WSW 15.0 mph - N/A Snow Light Snow Showers
9:30 AM 32.0 °F 21.2 °F 28.4 °F 87% 29.65 in 2.8 mi WSW 16.1 mph - N/A Snow Light Snow Showers
9:32 AM 32.0 °F 21.2 °F 28.4 °F 87% 29.65 in 2.5 mi WSW 16.1 mph - N/A Snow Snow Showers
9:37 AM 32.0 °F 20.5 °F 28.4 °F 87% 29.65 in 4.3 mi WSW 18.4 mph - N/A Snow Light Snow Showers
9:51 AM 32.0 °F 23.0 °F 28.4 °F 87% 29.68 in 2.8 mi West 11.5 mph - N/A Snow Snow Showers
10:00 AM 32.0 °F 22.5 °F 28.4 °F 87% 29.68 in 2.8 mi NW 12.7 mph - N/A Snow Snow Showers
10:03 AM 30.2 °F 20.2 °F 26.6 °F 86% 29.68 in 1.9 mi NW 12.7 mph - N/A Snow Snow Showers
10:05 AM 30.2 °F 20.2 °F 26.6 °F 86% 29.68 in 1.2 mi NW 12.7 mph - N/A Snow Snow Showers
10:11 AM 30.2 °F 20.2 °F 28.4 °F 93% 29.68 in - NW 12.7 mph - N/A Snow Snow Showers
10:16 AM 30.2 °F 20.2 °F 28.4 °F 93% 29.68 in 3.1 mi NW 12.7 mph - N/A Snow Light Snow Showers
10:30 AM 30.2 °F 19.8 °F 28.4 °F 93% 29.71 in 3.7 mi WNW 13.8 mph - N/A Snow Light Snow Showers
10:41 AM 30.2 °F 19.8 °F 26.6 °F 86% 29.71 in 6.2 mi West 13.8 mph - N/A Snow Light Snow Showers
11:00 AM 28.4 °F 16.6 °F 23.0 °F 80% 29.71 in 6.2 mi WNW 16.1 mph - N/A Snow Light Snow Showers
11:04 AM 28.4 °F 17.0 °F 23.0 °F 80% 29.71 in 6.2 mi West 15.0 mph - N/A   Scattered Clouds
11:30 AM 30.2 °F 18.5 °F 21.2 °F 69% 29.71 in 6.2 mi West 17.3 mph - N/A   Partly Cloudy
12:00 PM 28.4 °F 15.1 °F 21.2 °F 74% 29.74 in 6.2 mi West 20.7 mph - N/A   Partly Cloudy
12:03 PM 30.2 °F 17.4 °F 21.2 °F 69% 29.74 in 6.2 mi West 20.7 mph 32.2 mph N/A   Scattered Clouds
12:30 PM 28.4 °F 15.1 °F 19.4 °F 69% 29.74 in 6.2 mi West 20.7 mph - N/A   Scattered Clouds
12:52 PM 28.4 °F 14.7 °F 19.4 °F 69% 29.77 in 6.2 mi West 21.9 mph - N/A   Mostly Cloudy
1:00 PM 29 °F - 18 °F 52% 29.84 in 31 mi West 20.1 mph - -   Partly Cloudy
1:00 PM 28.4 °F 14.4 °F 19.4 °F 69% 29.77 in 6.2 mi West 23.0 mph - N/A   Mostly Cloudy
1:30 PM 28.4 °F 15.1 °F 19.4 °F 69% 29.77 in 6.2 mi West 20.7 mph - N/A   Mostly Cloudy
1:46 PM 28.4 °F 14.7 °F 19.4 °F 69% 29.77 in 6.2 mi West 21.9 mph - N/A Snow Light Snow
2:00 PM 28.4 °F 15.8 °F 21.2 °F 74% 29.77 in 2.8 mi West 18.4 mph - N/A Snow Light Snow
2:05 PM 28.4 °F 16.2 °F 21.2 °F 74% 29.77 in 5.0 mi West 17.3 mph - N/A Snow Light Snow
2:30 PM 28.4 °F 16.6 °F 21.2 °F 74% 29.80 in 6.2 mi West 16.1 mph - N/A Snow Light Snow
2:40 PM 28.4 °F 16.2 °F 21.2 °F 74% 29.80 in 6.2 mi West 17.3 mph - N/A   Mostly Cloudy
3:00 PM 28.4 °F 15.1 °F 21.2 °F 74% 29.80 in 6.2 mi West 20.7 mph - N/A   Mostly Cloudy
3:30 PM 28.4 °F 15.8 °F 21.2 °F 74% 29.83 in 6.2 mi West 18.4 mph - N/A   Mostly Cloudy
4:00 PM 28.4 °F 15.8 °F 21.2 °F 74% 29.83 in 6.2 mi West 18.4 mph - N/A   Mostly Cloudy
4:30 PM 26.6 °F 14.7 °F 21.2 °F 80% 29.83 in 6.2 mi West 15.0 mph - N/A   Mostly Cloudy
4:53 PM 26.6 °F 14.3 °F 21.2 °F 80% 29.86 in 6.2 mi WNW 16.1 mph - N/A Snow Light Snow
5:00 PM 26.6 °F 14.3 °F 21.2 °F 80% 29.86 in 6.2 mi WNW 16.1 mph - N/A Snow Light Snow
5:30 PM 26.6 °F 15.7 °F 21.2 °F 80% 29.86 in 6.2 mi West 12.7 mph - N/A   Scattered Clouds
6:00 PM 26.6 °F 14.3 °F 17.6 °F 69% 29.89 in 6.2 mi WNW 16.1 mph - N/A   Mostly Cloudy
6:30 PM 26.6 °F 16.2 °F 19.4 °F 74% 29.89 in 6.2 mi NW 11.5 mph - N/A   Mostly Cloudy
7:00 PM 26 °F - 15 °F 52% 30.00 in 25 mi NW 13.4 mph - -   Partly Cloudy
7:00 PM 24.8 °F 13.4 °F 15.8 °F 69% 29.92 in 6.2 mi WNW 12.7 mph - N/A   Mostly Cloudy
7:30 PM 24.8 °F 12.4 °F 15.8 °F 69% 29.92 in 6.2 mi WNW 15.0 mph - N/A   Mostly Cloudy
8:00 PM 24.8 °F 12.9 °F 14.0 °F 64% 29.92 in 6.2 mi WNW 13.8 mph - N/A   Partly Cloudy
8:30 PM 23.0 °F 11.7 °F 14.0 °F 68% 29.95 in 6.2 mi WNW 11.5 mph - N/A   Partly Cloudy
9:00 PM 23.0 °F 13.9 °F 15.8 °F 74% 29.95 in 6.2 mi WSW 8.1 mph - N/A   Partly Cloudy
9:30 PM 23.0 °F 13.1 °F 14.0 °F 68% 29.95 in 6.2 mi SW 9.2 mph - N/A   Scattered Clouds
10:00 PM 23.0 °F 11.1 °F 15.8 °F 74% 29.95 in 6.2 mi SW 12.7 mph - N/A   Mostly Cloudy
10:30 PM 23.0 °F 10.1 °F 15.8 °F 74% 29.95 in 3.1 mi WSW 15.0 mph - N/A Snow Light Snow
11:00 PM 21.2 °F 10.1 °F 15.8 °F 80% 29.95 in 6.2 mi SW 10.4 mph - N/A Snow Light Snow Showers
11:30 PM 23.0 °F 13.9 °F 17.6 °F 80% 29.95 in 6.2 mi SW 8.1 mph - N/A   Mostly Cloudy